Location: Unspecified
(0.0000°N, 0.0000°E)
Time: 09:21:05
(UTC+02:00)

HO-68 - Visible Passes

Search period start: 26 May 2017 00:00
Search period end: 05 June 2017 00:00
Orbit: 1193 x 1204 km, 100.1° (Epoch: 25 May)

Date Brightness Start Highest point End Pass type
(mag) Time Alt. Az. Time Alt. Az. Time Alt. Az.
26 May ? 21:48:39 10° S 21:55:19 42° WSW 22:01:58 10° NW visible
27 May ? 21:31:25 10° S 21:38:27 60° WSW 21:45:29 10° NNW visible
28 May ? 21:14:24 10° SSE 21:21:35 84° WSW 21:28:46 10° NNW visible
29 May ? 20:57:36 10° SSE 21:04:43 70° ENE 21:11:50 10° N visible
29 May ? 22:50:11 10° WSW 22:52:02 11° WSW 22:53:54 10° W visible
30 May ? 20:40:59 10° SSE 20:47:51 50° ENE 20:54:42 10° N visible
30 May ? 22:30:49 10° SW 22:35:13 17° WSW 22:39:39 10° WNW visible
31 May ? 20:24:38 10° SE 20:30:59 35° ENE 20:37:20 10° NNE visible
31 May ? 22:12:43 10° SSW 22:18:23 26° WSW 22:24:03 10° NW visible
01 Jun ? 21:55:06 10° S 22:01:32 37° WSW 22:07:59 10° NW visible
02 Jun ? 21:37:46 10° S 21:44:40 52° WSW 21:51:35 10° NNW visible
03 Jun ? 21:20:40 10° S 21:27:49 74° WSW 21:34:58 10° NNW visible
04 Jun ? 21:03:46 10° SSE 21:10:56 81° ENE 21:18:07 10° N visible
